Location: La Comballaz
(46.3780°N, 7.0817°E)
Time: 18:36:44
(UTC+00:00)

N. Korean satellite - Pass Details

Date: 15 December 2021
Orbit: 446 x 492 km, 97.3° (Epoch: 17 January)

Event Time Altitude Azimuth Distance (km) Brightness Sun altitude
Rises 16:21:33 0° 185° (S) 2,485 10.7 -6.2°
Reaches altitude 10° 16:23:43 10° 194° (SSW) 1,607 9.8 -6.5°
Maximum altitude 16:26:54 35° 262° (W) 757 8.3 -7.0°
Drops below altitude 10° 16:30:05 10° 330° (NNW) 1,599 9.2 -7.5°
Sets 16:32:14 0° 340° (NNW) 2,472 10.1 -7.8°
